User: anonymous   Login
Location: Caltech
(34.1382°N, 118.1253°W)
Time: 04:09:48
(UTC-08:00)
Language:

Cosmos 1937 Rocket - Orbit

View from above orbital plane
View from above orbital plane
View from above satellite
View from above satellite

Ground track
Ground track

The orbit data is extracted from the following two-line orbital elements,

1 19039U 88029B   14327.73865953  .00000203  00000-0  75388-4 0  1871
2 19039 074.0486 223.6354 0025040 269.3631 156.9099 14.38090555396220
Epoch (UTC): 23 November 2014 17:43:40
Eccentricity: 0.0025040
inclination: 74.0486°
perigee height: 747 km
apogee height: 783 km
right ascension of ascending node: 223.6354°
argument of perigee: 269.3631°
revolutions per day: 14.38090555
mean anomaly at epoch: 156.9099°
orbit number at epoch: 39622

The dashed part of the orbit path shows where the satellite is in the earth's shadow,  

DLR